Location: Gaast
(52.9002°N, 5.8891°E)
Time: 09:01:12
(UTC+00:00)

Cosmos 1536 Rocket - Pass Details

Date: 18 November 2025
Orbit: 599 x 625 km, 82.5° (Epoch: 11 December)

Event Time Altitude Azimuth Distance (km) Brightness Sun altitude
Rises 17:04:22 0° 352° (N) 2,922 6.9 -12.8°
Reaches altitude 10° 17:06:42 10° 359° (N) 2,008 6.0 -13.2°
Maximum altitude 17:10:58 45° 73° (ENE) 858 3.8 -13.8°
Drops below altitude 10° 17:15:11 10° 146° (SE) 1,980 5.9 -14.4°
Sets 17:17:29 0° 153° (SSE) 2,876 6.8 -14.7°
